Regional Weather Roundup
Issued by NWS

Home | Current Version | Previous Version | Text Only | Print | Product List | Glossary Off
Versions: 1 2 3 4 5 6 7 8 9 10 11 12 13 14 15 16 17 18 19 20 21 22 23 24 25 26 27 28 29 30 31 32 33 34 35 36 37 38 39 40 41 42 43 44 45 46 47 48 49 50

312
ASUS43 KLOT 302313
RWRIL

ILLINOIS REGIONAL WEATHER ROUNDUP
NATIONAL WEATHER SERVICE CHICAGO/ROMEOVILLE IL
600 PM CDT FRI SEP 30 2016

NOTE: "FAIR" INDICATES FEW OR NO CLOUDS BELOW 12,000 FEET WITH NO
SIGNIFICANT WEATHER AND/OR OBSTRUCTIONS TO VISIBILITY.

* THESE STATIONS ARE NOT UNDER NWS QUALITY CONTROL. THEY ALSO MAY NOT
  REPORT WEATHER SUCH AS PRECIPITATION OR FOG.

ILZ001-002-007-009-015-016-024-010000-
NORTHWEST ILLINOIS

CITY           SKY/WX    TMP DP  RH WIND       PRES   REMARKS
MOLINE         CLOUDY    64  58  80 N7        30.11R
STERLING*      LGT RAIN  61  60  97 N9        30.11R
SAVANNA*       CLOUDY    64  58  81 NE15      30.13R
$$

ILZ003-004-008-010-011-017-018-010000-
NORTH CENTRAL ILLINOIS

CITY           SKY/WX    TMP DP  RH WIND       PRES   REMARKS
ROCKFORD       LGT RAIN  62  58  86 NE13      30.12F
FREEPORT*      CLOUDY    60  57  89 NE9G16    30.15S
ROCHELLE*      CLOUDY    61  60  94 NE12      30.11S
DE KALB*       CLOUDY    63  59  86 NE8G21    30.10S
$$

ILZ005-006-012>014-019>023-010000-
NORTHEAST ILLINOIS

CITY           SKY/WX    TMP DP  RH WIND       PRES   REMARKS
CHICAGO-OHARE  CLOUDY    63  59  87 NE10      30.08S
CHICAGO-MIDWAY LGT RAIN  64  58  80 NE16      30.07S
AURORA         CLOUDY    66  58  75 NE12      30.08S
LANSING*       CLOUDY    62  61  96 NE14G23   30.06S
JOLIET*        CLOUDY    65  60  85 NE15G22   30.06S
WAUKEGAN       CLOUDY    63  59  87 NE8       30.09F
DUPAGE AIRPORT LGT RAIN  63  58  83 NE12      30.07F
KANKAKEE*      RAIN      63  61  94 N5        30.05R
WHEELING       LGT RAIN  63  59  87 NE9       30.10F
MORRIS*        CLOUDY    64  58  82 NE3       30.05S
ROMEOVILLE*    CLOUDY    63  61  94 NE13G20   30.06F
NORTHERLY ISL    N/A     62  57  83 NE13        N/A
$$

LMZ740>746-010000-
SOUTHERN LAKE MICHIGAN

STATION/POSITION SKY/WX   TEMP    WIND        PRES    VSBY  WAVE
                          AIR SEA DIR/SP/G                  HT/PER
                          (F)     (DEG/KT/KT) (MB)    (MI)  (FT/S)
SOUTHERN BUOY              64 68   70/ 21/ 27 1018.4S         4/ 5
WILMETTE HARBOR            62 59   80/ 10/ 14   N/A           5/ 6
HARRISON CRIB              64      60/ 18/ 19   N/A
BURNHAM HARBOR             62      40/ 11/ 15   N/A
CALUMET HARBOR                     30/ 11/ 16 1017.8R
BURNS HARBOR               62      50/ 19/ 23 1018.3R
MICHIGAN CITY              61      30/ 17/ 19   N/A
MICHIGAN CITY 6N           62 64   40/ 14/ 19   N/A           5/ 6
ST. JOSEPH                 55 51   30/  8/ 10 1018.9          4/ 6
$$

ILZ025>027-034>036-040-047-049-050-058-095>099-010000-
WEST-CENTRAL ILLINOIS

CITY           SKY/WX    TMP DP  RH WIND       PRES   REMARKS
QUINCY         CLOUDY    65  57  75 N10       30.08S
GALESBURG*     CLOUDY    63  58  82 N13       30.09S
MACOMB*        CLOUDY    65  57  77 N12       30.10F
JACKSONVILLE*  CLOUDY    66  58  77 NW9       30.05S
PITTSFIELD*    CLOUDY    65  59  79 NW6       30.08S
$$

ILZ028>032-037-038-041>044-048-051>054-059>061-010000-
CENTRAL ILLINOIS

CITY           SKY/WX    TMP DP  RH WIND       PRES   REMARKS
PONTIAC        CLOUDY    65  63  93 N13       30.06R
BLOOMINGTON    CLOUDY    64  58  80 N16       30.03F
DECATUR        CLOUDY    67  59  75 N13       30.01F
PEORIA         CLOUDY    64  63  96 N7        30.06S
LACON*         CLOUDY    66  58  75 NE6       30.05S
LINCOLN*       CLOUDY    66  62  86 N8        30.03S
SPRINGFIELD    CLOUDY    66  60  81 N12       30.04R
TAYLORVILLE    CLOUDY    62  61  97 N7        30.02S
$$

ILZ033-039-045-046-055>057-062-063-010000-
EAST-CENTRAL ILLINOIS

CITY           SKY/WX    TMP DP  RH WIND       PRES   REMARKS
CHAMPAIGN      CLOUDY    64  61  90 N6        30.01S
RANTOUL*       CLOUDY    66  62  87 N10       30.01S
MATTOON        CLOUDY    64  60  87 N7        29.99S
PARIS*         MOCLDY    64  60  85 CALM      30.00S
$$

ILZ079-100>102-010000-
SOUTHWEST ILLINOIS

CITY           SKY/WX    TMP DP  RH WIND       PRES   REMARKS
BELLEVILLE     PTCLDY    65  64  94 NW12      30.02R
CAHOKIA*       CLOUDY    64  60  87 W5        30.04F
SPARTA*        CLOUDY    64  59  85 NW9       30.04R
$$

ILZ064>066-069>071-074>076-080>082-084>086-088>090-092>094-010000-
SOUTH-CENTRAL ILLINOIS

CITY           SKY/WX    TMP DP  RH WIND       PRES   REMARKS
CARBONDALE     LGT RAIN  62  62 100 W3        30.02R
CAIRO*         MOCLDY    65  62  89 CALM      30.02F
EFFINGHAM*     MOCLDY    65  62  89 N9        30.01S
MARION         MOCLDY    68  61  77 W12       30.02R
MT. VERNON     PTCLDY    66  55  68 CALM      30.01S
CENTRALIA*     CLOUDY    66  62  85 N5        30.00S
SALEM*         PTCLDY    68  60  74 NW8       30.00R
METROPOLIS*    PTCLDY    65  61  87 W5        30.02S
$$

ILZ067-068-072-073-078-083-087-091-010000-
SOUTHEAST ILLINOIS

CITY           SKY/WX    TMP DP  RH WIND       PRES   REMARKS
LAWRENCEVILLE  PTCLDY    64  56  75 SE6       29.99R
FLORA*         CLOUDY    68  60  74 N9G17     29.99R
FAIRFIELD*     CLOUDY    64  60  89 CALM      29.97S
HARRISBURG*    LGT RAIN  65  61  86 E6        30.00S
ROBINSON*      CLOUDY    60  59  96 CALM      29.99F
CARMI*         LGT RAIN  63  62  98 SW3       29.99S
$$

ABBREVIATIONS USED IN REMARKS
   TC - TEMPERATURE IN CELSIUS
  WCI - WIND CHILL INDEX
   HX - HEAT INDEX
  VSB - VISIBILITY
$$





USA.gov is the U.S. government's official web portal to all federal, state and local government web resources and services.